Location: İstanbul
(41.0082°N, 28.9784°E)
Time: 01:33:09
(UTC+03:00)

NOAA 19 - Pass Details

Date: 27 April 2024
Orbit: 839 x 859 km, 99.0° (Epoch: 28 May)

Event Time Altitude Azimuth Distance (km) Brightness Sun altitude
Exits shadow 22:39:42 17° 220° (SW) 1,990 7.0 -25.8°
Maximum altitude 22:42:40 27° 264° (W) 1,559 6.8 -26.1°
Drops below altitude 10° 22:47:16 10° 322° (NW) 2,463 8.6 -26.7°
Sets 22:50:00 0° 334° (NNW) 3,402 9.6 -27.0°
